Hourly Data Report for October 31, 2016

All times are specified in Local Standard Time (LST). Add 1 hour to adjust for Daylight Saving Time where and when it is observed.

CORAL HARBOUR A
NUNAVUT

64°11'36.000" N
83°21'34.000" W
62.20 m
2301002
71915
YZS

Download Data

Hourly Data (October 2016)
Hourly Data Report for October 31, 2016
Temp Definition
°C
Dew Point Temp Definition
°C
Rel Hum Definition
%
Wind Dir Definition
10's deg

Wind Spd Definition
km/h
Visibility Definition
km
Stn Press Definition
kPa
Hmdx Definition


Wind Chill Definition


Weather Definition


TIME
00:00 Legend Double Dagger -19.1 -21.4 82 34 29 24.1 99.24   -31 Ice Crystals
01:00 Legend Double Dagger -19.3 -21.9 80 34 18 24.1 99.30   -29 Ice Crystals
02:00 Legend Double Dagger -18.5 -21.0 81 34 26 24.1 99.33   -30 Ice Crystals
03:00 Legend Double Dagger -17.5 -20.0 81 34 26 24.1 99.38   -29 Ice Crystals
04:00 Legend Double Dagger -16.1 -18.4 83 34 26 24.1 99.41   -27 Ice Crystals
05:00 Legend Double Dagger -14.7 -17.1 82 36 22 24.1 99.45   -24 Ice Crystals
06:00 Legend Double Dagger -15.4 -17.7 83 35 24 24.1 99.49   -26 Ice Crystals
07:00 Legend Double Dagger -13.7 -15.6 86 34 28 24.1 99.51   -24 Ice Crystals
08:00 Legend Double Dagger -16.1 -17.9 86 35 21 24.1 99.55   -26 Ice Crystals
09:00 Legend Double Dagger -16.1 -18.1 85 35 23 24.1 99.59   -26 Ice Crystals
10:00 Legend Double Dagger -17.0 -19.4 82 34 27 24.1 99.62   -28 Ice Crystals
11:00 Legend Double Dagger -15.4 -17.8 82 30 19 24.1 99.67   -24 Ice Crystals
12:00 Legend Double Dagger -14.9 -17.3 82 32 10 24.1 99.68   -21 Ice Crystals
13:00 Legend Double Dagger -10.5 -13.0 82 31 20 24.1 99.65   -18 Ice Crystals
14:00 Legend Double Dagger -9.7 -11.5 87 29 17 12.9 99.69   -17 Ice Crystals
15:00 Legend Double Dagger -8.7 -10.6 86 31 15 9.7 99.70   -15 Snow
16:00 Legend Double Dagger -9.3 -11.1 87 30 15 24.1 99.72   -16 Snow
17:00 Legend Double Dagger -10.3 -12.1 87 34 19 24.1 99.76   -18 Snow
18:00 Legend Double Dagger -12.1 -13.8 87 34 20 24.1 99.76   -21 LegendNANA
19:00 Legend Double Dagger -12.2 -13.5 90 29 8 24.1 99.87   -17 Clear
20:00 Legend Double Dagger -13.7 -15.1 89 33 12 24.1 99.91   -20 LegendNANA
21:00 Legend Double Dagger -12.1 -13.6 89 34 10 24.1 99.90   -18 LegendNANA
22:00 Legend Double Dagger -11.4 -12.9 89 34 8 24.1 99.89   -16 Mainly Clear
23:00 Legend Double Dagger -10.6 -12.2 88 36 10 24.1 99.90   -16 Snow

Notes on Data Quality.

Legend

  • E = Estimated
  • M = Missing
  • NA = Not Available
  • ‡ = Partner data that is not subject to review by the National Climate Archives
Date modified: